Regional Weather Roundup
Issued by NWS

Home | Current Version | Previous Version | Graphics & Text | Print | Product List | Glossary On
Versions: 1 2 3 4 5 6 7 8 9 10 11 12 13 14 15 16 17 18 19 20 21 22 23 24 25 26 27 28 29 30 31 32 33 34 35 36 37 38 39 40 41 42 43 44 45 46 47 48 49 50
702
ASUS43 KFSD 251310
RWRSD

WEATHER ROUNDUP FOR SOUTH DAKOTA
NATIONAL WEATHER SERVICE SIOUX FALLS SD
700 AM CST SAT FEB 25 2017

NOTE: "FAIR" INDICATES FEW OR NO CLOUDS BELOW 12,000 FEET WITH NO
SIGNIFICANT WEATHER AND/OR OBSTRUCTIONS TO VISIBILITY.


SDZ001>005-009-010-012>017-251400-
NORTHWEST AND NORTH CENTRAL SOUTH DAKOTA

CITY           SKY/WX    TMP DP  RH WIND       PRES   REMARKS
BUFFALO          N/A     23  21  92 W12       29.81F WCI  12
FAITH            N/A     20  18  92 S8        29.90F WCI  10
MOBRIDGE       CLOUDY    23  16  74 S6        29.91F WCI  16
$$

SDZ012>016-024>037-041>051-057-063-072>074-251400-
SOUTHWEST AND SOUTH CENTRAL SOUTH DAKOTA

CITY           SKY/WX    TMP DP  RH WIND       PRES   REMARKS
RAPID CTY ARPT CLOUDY    19  12  74 NW7       29.90F WCI  10
PIERRE         CLOUDY    22  14  71 S8        29.97F WCI  12
CUSTER         CLOUDY    14   7  73 W3        29.81S
ELLSWORTH AFB  CLOUDY    20  15  81 NW6       29.89F WCI  12
PHILIP         PTCLDY    15  12  88 SW3       29.95F
PINE RIDGE     CLEAR      6   3  87 VRB3      29.94F
SPEARFISH      MIX PCPN  25  18  74 W9        29.88F WCI  15
WINNER         CLOUDY    16  10  77 SW10      30.00F WCI   4
$$

SDZ004>011-016>023-039-040-251400-
NORTHEAST SOUTH DAKOTA

CITY           SKY/WX    TMP DP  RH WIND       PRES   REMARKS
ABERDEEN       MOCLDY    16  12  84 S5        29.99F WCI   9
WATERTOWN      CLEAR     11   9  92 CALM      29.97F
BROOKINGS      CLEAR     12   9  87 W6        29.99F WCI   3
SISSETON         N/A     19  15  84 CALM      29.98F
$$

SDZ017-020-022-023-036>040-048>070-251400-
SOUTHEAST SOUTH DAKOTA

CITY           SKY/WX    TMP DP  RH WIND       PRES   REMARKS
SIOUX FALLS    PTCLDY    11   9  92 S3        30.03F
HURON          CLOUDY    20  16  84 SW6       30.03F WCI  12
CHAMBERLAIN    CLOUDY    23  19  85 S6        30.02F WCI  15
MITCHELL       CLOUDY    21  16  81 SW6       30.06F WCI  13
YANKTON        CLOUDY    14   9  79 SW5       30.08S WCI   6
$$

ABBREVIATIONS USED IN REMARKS
   TC - TEMPERATURE IN CELSIUS
  WCI - WIND CHILL INDEX
   HX - HEAT INDEX
  VSB - VISIBILITY





USA.gov is the U.S. government's official web portal to all federal, state and local government web resources and services.